Tracking 22454 objects as of 5-Mar-2021
HD Live streaming from Space Station
objects crossing your sky now

FREGAT DEB

Track FREGAT DEB now!
10-day predictions


NORAD ID: 46411
Int'l Code: 2011-037LQ
Perigee: 482.3 km
Apogee: 3,474.5 km
Inclination: 51.5 °
Period: 126.5 minutes
Semi major axis: 8349 km
RCS: Unknown
Launch date: July 18, 2011
Source: Commonwealth of Independent States (former USSR) (CIS)
Launch site: TYURATAM MISSILE AND SPACE COMPLEX (TTMTR)

Note: This is SATELLITE DEBRIS
aabbcc
Your satellite tracking list
Your tracking list is empty




NASA's NSSDC Master Catalog

Two Line Element Set (TLE):
1 46411U 11037LS  21063.25429295  .00000286  00000-0  12609-3 0  9995
2 46411  51.4983  40.6876 1791851 211.3800 136.6811 11.37944088 25486
Source of the keplerian elements: AFSPC